Content
SEND FEEDBACK

Daily
Averages
Monthly
Summary
Germany

BRUGGEN, GERMANY


Home > Europe > Germany
Elevation: 241 feet     Latitude: 51 12N     Longitude: 006 08E

WEATHER
 
SELECT A DAY
Number of Records: 38,593;   Date Range: 10/29/98 - 9/1/14
 
SHARE

PRINT THIS DATA

[ ← Previous Day ]
WEATHER ALMANAC - JANUARY 31, 2013
[ Next Day → ]
[ °C ]   °F
Weather ElementAverageHighLow
Temperature46.5 °F48.2 °F (3:50 pm)44.6 °F (4:50 am)
Dewpoint39.4 °F42.8 °F (2:50 pm)33.8 °F (10:50 am)
Humidity76.7 %87 % (1:50 pm)62 % (10:50 am)
Barometer29.94 in30.06 in (3:50 am)29.80 in (3:50 pm)
Wind Speed16.6 mph19.6 mph (12:50 pm)
Wind Gust36.8 mph (10:50 am)
Weather ElementAverage
Visibility6 mi
Wind DirectionWSW (240.9 °)

Weather ElementTotal
Precipitation---
Heating Degree Days18.6 (Base 65)
Averaged from 23 records on January 31, 2013
WEATHER CONDITIONS BREAKOUT
WIND DIRECTION BREAKOUT
WEATHER BY HOUR - JANUARY 31, 2013
[ °C ]   °F
Local TimeTemperatureDewpointHumidityBarometerVisibilityWind DirectionWind SpeedGust SpeedPrecipitationEventsConditions
1:50 AM46.4 °F39.2 °F76 %30.04 in6.2 miWSW (250°)18.4 mph31.1 mphMostly Cloudy
2:50 AM46.4 °F39.2 °F76 %30.04 in6.2 miWSW (250°)15.0 mphMostly Cloudy
3:50 AM46.4 °F39.2 °F76 %30.06 in6.2 miWSW (250°)18.4 mphMostly Cloudy
4:50 AM44.6 °F39.2 °F81 %30.06 in6.2 miWSW (240°)16.1 mph27.6 mphMostly Cloudy
5:50 AM46.4 °F39.2 °F76 %30.04 in6.2 miWSW (240°)16.1 mphMostly Cloudy
6:50 AM46.4 °F39.2 °F76 %30.01 in6.2 miWSW (240°)15.0 mphMostly Cloudy
7:50 AM46.4 °F39.2 °F76 %30.01 in6.2 miSW (230°)11.5 mph23.0 mphMostly Cloudy
8:50 AM44.6 °F39.2 °F81 %29.98 in6.2 miSW (230°)15.0 mph26.5 mphMostly Cloudy
9:50 AM44.6 °F37.4 °F76 %29.95 inSW (220°)15.0 mph29.9 mphClear
10:50 AM46.4 °F33.8 °F62 %29.92 inSW (230°)17.3 mph36.8 mphClear
11:50 AM46.4 °F35.6 °F66 %29.89 in6.2 miSW (220°)16.1 mph36.8 mphMostly Cloudy
12:50 PM44.6 °F39.2 °F81 %29.92 in3.7 miWSW (240°)19.6 mph31.1 mphRainRain
1:50 PM44.6 °F41.0 °F87 %29.89 in6.2 miSW (230°)17.3 mph31.1 mphRainLight Rain
2:50 PM46.4 °F42.8 °F87 %29.86 in6.2 miWSW (240°)18.4 mph32.2 mphMostly Cloudy
3:50 PM48.2 °F42.8 °F82 %29.80 in5.0 miWSW (240°)17.3 mph28.8 mphRainLight Rain Showers
4:50 PM48.2 °F42.8 °F82 %29.83 in6.2 miWSW (250°)18.4 mph33.4 mphScattered Clouds
5:50 PM48.2 °F41.0 °F76 %29.86 in6.2 miWest (260°)18.4 mphMostly Cloudy
6:50 PM48.2 °F39.2 °F71 %29.89 in6.2 miWSW (250°)18.4 mphMostly Cloudy
7:50 PM48.2 °F39.2 °F71 %29.89 in6.2 miWSW (250°)18.4 mphMostly Cloudy
8:50 PM48.2 °F39.2 °F71 %29.92 in6.2 miWest (260°)16.1 mphMostly Cloudy
9:50 PM46.4 °F39.2 °F76 %29.92 in6.2 miWSW (240°)15.0 mphMostly Cloudy
10:50 PM46.4 °F39.2 °F76 %29.92 inWSW (240°)13.8 mphClear
11:50 PM46.4 °F41.0 °F81 %29.92 inWSW (240°)16.1 mphClear
Hourly data recorded from ETNG, located miles away from Bruggen, Germany







STORIES FROM OUR PARTNERS